CW6682 Weather Reports


time (UTC)temp
C
wind
direction
speed
KPH
gust
KPH
rain 1hr
cm
rain 24hr
cm
rain mn
cm
humidity
%
barometer
mb
20260507171543 27 203 6.4 0.0 0.00 0.00 0.00 16 1010.4
20260507170038 26 244 4.8 0.0 0.00 0.00 0.00 17 1010.3
20260507164541 26 247 4.8 0.0 0.00 0.00 0.00 20 1010.4
20260507163030 25 355 4.8 0.0 0.00 0.00 0.00 22 1010.7
20260507161527 25 360 4.8 0.0 0.00 0.00 0.00 24 1010.8
20260507160027 25 5 3.2 0.0 0.00 0.00 0.00 26 1010.8
20260507154525 25 5 0.0 0.0 0.00 0.00 0.00 25 1010.8
20260507153021 24 5 1.6 0.0 0.00 0.00 0.00 22 1010.9
20260507151516 24 360 3.2 0.0 0.00 0.00 0.00 23 1010.9
20260507150021 23 360 1.6 0.0 0.00 0.00 0.00 23 1010.9
20260507144519 22 360 6.4 0.0 0.00 0.00 0.00 25 1010.9
20260507143004 22 336 4.8 0.0 0.00 0.00 0.00 28 1010.9
20260507141604 21 360 1.6 0.0 0.00 0.00 0.00 29 1010.9
20260507140101 21 22 4.8 0.0 0.00 0.00 0.00 29 1010.7
20260507134603 20 22 6.4 0.0 0.00 0.00 0.00 30 1010.6
20260507133120 20 22 6.4 0.0 0.00 0.00 0.00 30 1010.5
20260507131554 20 22 6.4 0.0 0.00 0.00 0.00 30 1010.6
20260507130104 19 44 4.8 0.0 0.00 0.00 0.00 31 1010.5
20260507124546 18 52 3.2 0.0 0.00 0.00 0.00 32 1010.5
20260507123044 18 179 1.6 0.0 0.00 0.00 0.00 32 1010.5
20260507121556 18 205 4.8 0.0 0.00 0.00 0.00 31 1010.5
20260507120054 18 205 1.6 0.0 0.00 0.00 0.00 31 1010.5
20260507114624 19 205 0.0 0.0 0.00 0.00 0.00 31 1010.4
20260507113042 18 205 1.6 0.0 0.00 0.00 0.00 31 1010.5
20260507111542 18 205 3.2 0.0 0.00 0.00 0.00 31 1010.5
20260507110041 18 205 1.6 0.0 0.00 0.00 0.00 31 1010.6
20260507104539 19 205 4.8 0.0 0.00 0.00 0.00 31 1010.7
20260507103039 19 205 4.8 0.0 0.00 0.00 0.00 31 1010.9
20260507101543 18 205 3.2 0.0 0.00 0.00 0.00 33 1011.0
20260507100037 18 205 0.0 0.0 0.00 0.00 0.00 32 1011.2
20260507094534 19 205 1.6 0.0 0.00 0.00 0.00 32 1011.1
20260507093033 19 205 1.6 0.0 0.00 0.00 0.00 31 1011.1
20260507091541 19 205 3.2 0.0 0.00 0.00 0.00 32 1011.2
20260507090037 20 205 0.0 0.0 0.00 0.00 0.00 31 1011.4
20260507084530 20 205 0.0 0.0 0.00 0.00 0.00 31 1011.4
20260507083032 20 205 1.6 0.0 0.00 0.00 0.00 31 1011.6
20260507081529 20 205 0.0 0.0 0.00 0.00 0.00 32 1011.7
20260507080030 20 205 0.0 0.0 0.00 0.00 0.00 31 1011.7
20260507074526 20 205 0.0 0.0 0.00 0.00 0.00 32 1011.7
20260507073022 20 205 0.0 0.0 0.00 0.00 0.00 32 1011.5
20260507071518 21 205 0.0 0.0 0.00 0.00 0.00 30 1011.5
20260507070024 21 205 1.6 0.0 0.00 0.00 0.00 29 1011.5
20260507064515 22 205 3.2 0.0 0.00 0.00 0.00 31 1011.5
20260507063014 21 205 1.6 0.0 0.00 0.00 0.00 29 1011.4
20260507061515 22 205 1.6 0.0 0.00 0.00 0.00 30 1011.5
20260507060014 21 205 0.0 0.0 0.00 0.00 0.00 31 1011.5
20260507054519 22 205 0.0 0.0 0.00 0.00 0.00 30 1011.5
20260507053014 22 205 0.0 0.0 0.00 0.00 0.00 30 1011.5
20260507051513 22 205 0.0 0.0 0.00 0.00 0.00 27 1011.4
20260507050013 23 205 0.0 0.0 0.00 0.00 0.00 26 1011.3
20260507044512 23 205 0.0 0.0 0.00 0.00 0.00 25 1011.1
20260507043020 24 205 0.0 0.0 0.00 0.00 0.00 24 1011.0
20260507041511 24 205 0.0 0.0 0.00 0.00 0.00 24 1010.8
20260507040011 25 205 0.0 0.0 0.00 0.00 0.00 23 1010.7
20260507034509 25 205 0.0 0.0 0.00 0.00 0.00 23 1010.6
20260507033010 25 205 0.0 0.0 0.00 0.00 0.00 22 1010.3
20260507031511 25 205 0.0 0.0 0.00 0.00 0.00 22 1010.1
20260507030009 25 205 1.6 0.0 0.00 0.00 0.00 22 1010.1
20260507024511 25 205 3.2 0.0 0.00 0.00 0.00 21 1010.0
20260507023008 26 205 4.8 0.0 0.00 0.00 0.00 21 1009.7
20260507021507 26 203 4.8 0.0 0.00 0.00 0.00 20 1009.6
20260507020006 26 203 4.8 0.0 0.00 0.00 0.00 20 1009.7
20260507014506 26 207 4.8 0.0 0.00 0.00 0.00 20 1009.7
20260507013016 27 173 4.8 0.0 0.00 0.00 0.00 19 1009.7
20260507011510 27 283 4.8 0.0 0.00 0.00 0.00 19 1009.6
20260507010009 27 292 6.4 0.0 0.00 0.00 0.00 19 1009.7
20260507004504 27 178 6.4 0.0 0.00 0.00 0.00 19 1009.7
20260507003005 27 177 8.0 0.0 0.00 0.00 0.00 19 1009.7
20260507001504 27 266 6.4 0.0 0.00 0.00 0.00 19 1009.7
20260507000002 27 11 6.4 0.0 0.00 0.00 0.00 20 1009.6
20260506234500 27 319 4.8 0.0 0.00 0.00 0.00 19 1009.8
20260506233111 27 316 6.4 0.0 0.00 0.00 0.00 20 1009.8
20260506231602 27 254 4.8 0.0 0.00 0.00 0.00 20 1010.1
20260506230056 27 273 6.4 0.0 0.00 0.00 0.00 20 1010.3
20260506224554 26 247 8.0 0.0 0.00 0.00 0.00 20 1010.4
20260506223053 26 223 6.4 0.0 0.00 0.00 0.00 21 1010.6
20260506221551 26 253 8.0 0.0 0.00 0.00 0.00 21 1010.9
20260506220050 26 319 11.3 0.0 0.00 0.00 0.00 21 1010.9
20260506214553 26 329 4.8 0.0 0.00 0.00 0.00 21 1011.2
20260506213108 26 334 8.0 0.0 0.00 0.00 0.00 21 1011.4
20260506211548 25 341 4.8 0.0 0.00 0.00 0.00 22 1011.8
20260506210046 25 317 11.3 0.0 0.00 0.00 0.00 23 1011.8
20260506204543 25 345 8.0 0.0 0.00 0.00 0.00 22 1012.0
20260506203040 25 326 6.4 0.0 0.00 0.00 0.00 23 1012.2
20260506201541 24 233 8.0 0.0 0.00 0.00 0.00 24 1012.4
20260506200038 23 317 8.0 0.0 0.00 0.00 0.00 25 1012.6
20260506194538 24 306 6.4 0.0 0.00 0.00 0.00 26 1012.7
20260506193037 23 202 8.0 0.0 0.00 0.00 0.00 25 1012.8
20260506191539 23 192 6.4 0.0 0.00 0.00 0.00 25 1013.2
20260506190035 23 290 8.0 0.0 0.00 0.00 0.00 26 1013.2
20260506184545 23 265 1.6 0.0 0.00 0.00 0.00 26 1013.6
20260506183038 22 254 9.7 0.0 0.00 0.00 0.00 28 1013.7
20260506181536 23 302 3.2 0.0 0.00 0.00 0.00 29 1013.9
20260506180029 22 303 4.8 0.0 0.00 0.00 0.00 30 1013.9
20260506174524 21 302 8.0 0.0 0.00 0.00 0.00 31 1013.9
20260506173019 21 296 4.8 0.0 0.00 0.00 0.00 30 1013.8